STARLINK-4495 (53552 NORAD) Tracking and Keplerian Element Data

This shows tracking and keplerian element data for the satellite.

Feedback or suggestion? Click here.




ElementValue
Catalog53552
NameSTARLINK-4495
Epoch Orbit1504
Epoch Day324.69323039
Epoch Year2022
RAAN73.5492
Inclination53.22
Eccentricity0.0001749
Argument of Perigee56.7398
Mean Anonmoly303.3762
Mean Motion15.08846559
Decay Rate-2.13E-06
L11 53552U 22101AB 22324.69323039 -.00000213 00000+0 47396-5 0 9994
L22 53552 53.2200 73.5492 0001749 56.7398 303.3762 15.08846559 15048



Live tracking and technical data element details for STARLINK-4495 (NORAD 53552). STARLINK-4495 can be tracked NOW for your location showing map with azimuth and elevation plus other details from your city location.







IsCatalogInMostPopularTable: catalog: 53552, numindb: 2
Update: records affected: 1



GetName: 53552 STARLINK-4495

Hit Count: updated at: Thu, 08 Dec 2022 20:53:54 GMT